Temp_Advection
nan nan nan nan nan nan nan nan nan nan nan nan nan nan nan nan nan nan nan nan nan nan nan nan nan nan nan nan nan nan nan nan nan nan nan nan nan nan nan nan nan nan nan nan nan nan nan nan nan nan nan nan nan nan nan nan nan nan nan nan nan nan nan nan nan nan nan nan nan
nan -0 -0 -0 -0 -0 -0 -0 -0 -0 -0 -0 -0 -0 -0 -0 -0 -0 -0 0 0 -0 -0 0 -0 -0 -0 -0 -0 -0 -0 -0 -0 -0 -0 -0 0 0 0 -0 -0 -0 -0 -0 -0 -0 -0 0 0 -0 -0 -0 -0 -0 -0 0 1 0 0 0 0 -0 -0 -0 -0 -0 -0 -0 nan
nan -0 -0 -0 -0 -0 -0 -0 -0 -0 -0 -0 -0 -0 -0 -0 -0 -0 -0 -0 -0 0 -0 -0 -0 -0 -0 -0 -0 0 0 0 -0 0 0 0 0 0 0 0 -0 -0 -0 -0 -0 -0 -0 0 0 -0 -0 -0 -0 -0 -0 0 1 1 0 0 0 0 -0 -0 -0 -0 -0 -0 nan
nan -0 0 0 -0 -0 -0 -0 -0 0 0 0 0 0 0 0 0 -0 -0 -0 -0 -0 -0 -0 -0 -0 -0 -0 -0 0 0 0 0 0 0 0 0 0 0 0 -0 -0 -0 -0 -0 -0 -0 0 0 0 0 -0 -0 -0 -0 0 1 1 1 1 0 0 0 -0 -0 -0 -0 -0 nan
nan 0 0 0 0 0 0 -0 -0 0 0 0 0 0 0 0 -0 -0 -0 -0 -0 -0 -0 -0 -0 -0 -0 -0 -0 -0 0 0 0 0 0 0 0 0 0 0 0 -0 -0 -0 -0 -0 -0 0 -0 -0 0 0 0 -0 0 0 1 1 0 1 1 1 0 0 0 -0 -0 -0 nan
nan 0 0 0 0 0 0 -0 -0 -0 -0 -0 -0 -0 -0 -0 -0 -0 -0 -0 -0 -0 -0 -0 -0 -0 -0 -0 -0 -0 -0 0 0 0 -0 -0 -0 0 0 0 -0 -0 -0 -0 -0 -0 0 0 -0 -0 -0 -0 -0 0 0 1 1 0 0 0 0 1 1 0 0 0 -0 -0 nan
nan 0 0 0 0 0 0 -0 -0 -0 -0 -0 -0 -0 -0 -0 -0 -0 -0 -1 -1 -0 -0 -0 -0 -0 -0 -0 -0 -0 -0 -0 0 0 -0 -0 -0 -0 -0 -0 -0 -0 -0 -0 -0 -0 -0 0 -0 -0 -0 -0 -0 -0 0 1 1 0 -0 -0 -0 0 0 0 0 0 -0 -0 nan
nan 0 0 0 0 -0 -0 -0 -0 -0 -0 -0 -0 -0 -0 -1 -1 -1 -0 -0 -0 -0 -0 -0 -0 -0 -0 -0 -0 -0 -0 -0 -0 -0 -0 -0 -0 -0 -0 -0 -0 -0 -0 -0 -0 -0 -0 -0 -0 -0 -0 -0 -0 -0 -0 0 0 0 -0 -1 -1 -0 0 0 0 0 0 -0 nan
nan 0 0 0 0 -0 -0 -0 -0 -0 -0 -0 -0 -0 -0 -0 -0 -0 -0 -0 -0 -0 -0 -0 -0 -0 -0 -0 -0 0 0 -0 -0 -0 -0 -0 -0 -0 -0 -0 -0 -0 -0 -0 -0 -0 -0 -0 -0 -0 -0 -0 -0 -0 -0 0 0 0 -0 -1 -1 -1 -0 0 0 0 0 0 nan
nan 0 0 0 0 -0 -0 -0 -0 -0 -0 -0 -0 -0 -0 -0 -0 -0 -0 -0 -0 -0 0 -0 -0 -0 -0 -0 -0 -0 -0 -0 -0 -0 -0 -0 -0 -0 -0 -0 -0 -1 -1 -1 -0 -0 -1 -1 -1 -1 -0 -0 -0 -0 -0 -0 0 -0 -0 -0 -1 -1 -1 -0 0 0 1 0 nan
nan 0 0 -0 -0 -0 -0 -0 -0 -0 -0 -0 -0 -0 -0 -0 -0 -0 0 -0 -0 -0 0 0 -0 -0 -0 -0 -0 -0 -0 -0 -0 -0 -0 -0 -0 -0 -0 -0 -0 -1 -1 -1 -1 -1 -1 -1 -1 -1 -1 -0 -0 -0 -0 -0 -0 -0 -0 -0 -0 -1 -1 -1 -0 0 1 0 nan
nan 0 0 -0 -0 -0 -0 -0 -0 -0 -0 -0 -0 -0 -0 -0 0 -0 -0 -0 -0 -0 -0 -0 -0 -0 -0 -0 -0 -0 -0 -0 -0 -0 -0 -0 -0 -0 -0 -0 -0 -0 -1 -1 -0 -1 -1 -1 -1 -1 -1 -1 -0 -0 -0 -0 -0 -0 -1 -1 -1 -1 -1 -1 -1 0 0 0 nan
nan 0 -0 -0 -0 -0 -0 -0 -0 -0 -0 -0 -0 -0 -0 -0 -0 -0 -0 -0 -0 -0 -0 -0 -0 -0 -0 -0 -0 -0 -0 -0 -0 -0 -0 -0 -0 -0 -0 -0 -0 -0 -0 -0 -0 -0 -1 -1 -1 -1 -1 -1 -1 -0 -0 -0 -0 -1 -1 -1 -1 -1 -1 -1 -1 -0 0 0 nan
nan -0 -0 -0 -0 -0 -0 -0 -0 -0 -0 -0 -0 -0 -0 -0 -0 -0 -0 -0 -0 -0 -0 -0 -0 -0 -0 -0 -0 -0 -0 -0 -0 -1 -1 -0 -0 -0 -0 -1 -0 -0 -0 -0 -0 -0 -0 -0 -0 -0 -0 -1 -1 -0 -0 -0 -0 -0 -0 -1 -1 -1 -1 -1 -1 -0 0 0 nan
nan -0 -0 -0 -0 -0 -0 -0 -0 -0 -0 -0 -0 -0 -0 -0 -0 -0 -0 -0 -0 -0 -0 -0 -0 -0 -0 -0 -0 -0 -0 -0 -0 -1 -1 -1 -1 -0 -0 -1 -0 -0 -0 -0 -0 -0 -0 -0 -0 0 -0 -0 -1 -0 -0 -0 -0 -0 -0 -0 -0 -1 -1 -1 -0 -0 0 -0 nan
nan -0 -0 -0 -0 -0 -0 -0 -0 -0 -0 -0 -0 -0 -0 -0 -0 -0 -0 -0 -0 -0 -0 -0 -0 -0 -0 -0 -0 -0 -0 -0 -0 -1 -1 -1 -1 -1 -0 -0 -0 -0 -0 -0 -0 -0 0 0 0 0 0 -0 -0 -0 -0 -0 -0 -0 -0 -0 -0 -0 -0 -0 -0 -0 -0 -0 nan
nan -0 -0 -0 -0 -0 -0 -0 -0 -0 -0 -0 -0 -0 -0 -0 -0 -0 -0 -0 -0 -1 -0 -0 -0 -0 -1 -0 -0 -0 -0 -0 -0 -0 -0 -1 -1 -1 -0 -0 -0 -0 -0 -0 -0 -0 -0 0 0 0 0 0 -0 -0 -0 -0 -0 -0 -0 -0 -0 -0 -0 -0 -0 -0 -0 -0 nan
nan -0 -0 -0 -0 -0 -0 -0 -0 -0 -0 -0 -0 -0 -0 -0 -0 -0 -0 -0 -0 -0 -1 -0 -0 -0 -1 -1 -0 -0 -0 -0 -0 -0 -0 -0 -0 -0 -0 -0 -0 -0 -0 -0 -0 -0 -0 -0 0 0 0 0 0 -0 -0 -0 -0 -0 -0 -0 -0 -0 -0 -0 -0 -0 -0 -0 nan
nan -0 -0 -0 -0 -0 -0 -0 -0 -0 -0 -0 -0 -0 -0 -0 -0 -0 -0 -0 -0 -0 -0 -1 -1 -0 -0 -0 -0 -0 -0 -0 -0 -0 -0 -0 -0 -0 -0 -0 -0 -0 -0 0 0 0 -0 0 0 0 0 0 0 0 0 -0 -0 -0 -0 -0 -0 -0 -0 -0 -0 -0 -0 -0 nan
nan -0 -0 -0 -0 -0 -0 -0 -0 -0 -0 -0 -0 -0 -0 -0 -0 -0 -0 -0 -0 -0 -0 -1 -1 -1 -1 -0 -1 -0 -0 -0 -0 -0 -0 -0 -0 -0 -0 -0 -0 -0 -0 0 0 0 0 0 0 0 0 -0 -0 -0 -0 -0 -0 -0 -0 -0 -0 -0 -0 -0 0 -0 -0 -0 nan
nan -0 -0 -0 -0 -0 -0 -0 -0 -0 -0 -0 -0 -0 -0 -0 -0 -0 -0 -0 -0 -0 -0 -0 -1 -1 -1 -1 -1 -1 -0 -0 -0 -0 -0 -0 -0 -0 -0 -0 -0 -0 -0 -0 0 0 0 0 0 0 -0 -0 -0 -0 -0 -0 -0 -0 -0 0 0 0 0 0 -0 0 0 0 nan
nan -0 -0 -0 -0 -0 -0 -0 -0 -0 -0 -0 -0 -0 -0 -0 -0 -0 -0 -0 -0 -0 -0 -1 -1 -1 -1 -1 -1 -1 -1 -0 -0 -0 -0 -0 -0 -0 -0 -0 -0 -0 -0 -0 0 0 0 0 -0 -0 -0 -0 -0 -1 -1 -1 -1 -1 -0 -0 0 1 0 0 0 0 0 0 nan
nan -0 -0 -0 -0 -0 -0 -0 -0 -0 -0 -0 -0 -0 -0 -0 -0 -0 -0 -0 -1 -1 -1 -1 -1 -1 -1 -1 -1 -1 -1 -1 -0 -0 -0 -0 -0 -0 -0 0 0 -0 -0 0 0 0 -0 -1 -1 -0 -1 -1 -1 -1 -0 -0 -0 -0 -0 -0 0 0 0 0 0 0 0 0 nan
nan -0 -0 -0 -0 -0 -0 -0 -0 -0 -0 -0 -0 -1 -1 -1 -1 -1 -1 -1 -1 -1 -1 -1 -1 -1 -1 -1 -0 -0 -0 -1 -1 -0 -0 -0 -0 -0 -0 -0 0 0 0 0 0 0 -0 -1 -1 -1 -0 -0 -1 -0 -0 0 0 0 -0 -0 0 0 0 0 0 0 0 0 nan
nan -0 -0 -0 -0 -0 -0 -0 -0 -0 -1 -1 -1 -1 -1 -1 -1 -1 -1 -1 -1 -1 -1 -1 -1 -1 -1 -0 -0 -0 -0 -0 -0 -0 -1 -1 -0 -0 -0 -0 -0 0 0 0 0 0 1 0 -0 -1 -0 -0 -0 -0 -0 0 0 0 0 0 0 0 0 0 0 0 0 0 nan
nan -0 -0 -0 -0 -0 -0 -0 -0 -1 -1 -1 -1 -1 -1 -1 -1 -1 -1 -1 -1 -1 -1 -1 -1 -0 -0 -0 -0 -0 -0 -0 -0 -0 -0 -1 -1 -1 -0 -0 -0 0 0 0 0 0 1 1 1 0 -0 -0 0 0 0 0 0 -0 -0 0 0 0 0 0 0 0 0 0 nan
nan -0 -0 -0 -0 -0 -0 -0 -1 -1 -1 -1 -1 -1 -1 -1 -1 -1 -1 -1 -1 -1 -0 -0 -0 -0 -0 -0 -0 -0 -0 -0 -0 0 -0 -0 -1 -1 -1 -0 -0 0 0 0 0 0 0 1 1 0 0 0 0 0 0 0 0 0 -0 -0 0 0 0 1 0 0 -0 -0 nan
nan -0 -0 -0 -0 -0 -0 -1 -1 -1 -1 -1 -1 -1 -1 -1 -1 -1 -1 -1 -1 -0 -0 -0 -0 -0 -0 -0 -0 -0 -0 -0 -0 -0 0 -0 -0 -0 -1 -1 -0 0 0 0 0 0 1 1 0 0 -0 -0 -0 0 0 0 0 0 0 0 0 0 0 1 0 0 -0 -0 nan
nan -0 -0 -0 -1 -1 -1 -1 -1 -1 -1 -1 -1 -1 -1 -1 -1 -1 -1 -0 -0 -0 -0 -0 -0 -0 -0 -0 -0 -0 -0 -0 -0 -0 -0 -0 -0 -0 -0 -0 -0 -0 0 0 0 0 1 1 0 0 -0 -0 -0 -0 0 0 0 0 0 0 0 0 0 0 0 0 -0 -0 nan
nan -0 -1 -1 -1 -1 -1 -1 -1 -1 -1 -1 -1 -1 -1 -1 -1 -0 -0 -0 -0 -0 -0 -0 -0 -0 -0 -0 -0 -0 -0 -0 -0 0 -0 -0 -1 -1 -1 -0 -0 0 0 0 0 0 1 0 0 0 -0 -0 -0 0 0 0 0 0 0 0 0 0 0 -0 -0 0 0 -0 nan
nan -0 -1 -1 -1 -1 -1 -1 -1 -1 -1 -1 -1 -1 -1 -0 -0 -0 -0 -0 -0 -0 -0 -0 -0 -0 -0 -0 -0 -0 -0 -0 -0 -0 0 -0 -0 -1 -1 -0 -0 0 0 0 0 0 1 0 0 0 -0 -0 -0 -0 0 0 0 0 0 0 0 0 0 -0 -0 0 -0 -0 nan
nan -1 -1 -1 -1 -1 -1 -1 -1 -1 -0 -0 -0 -0 -0 -0 -0 -0 -0 0 -0 -0 -0 -0 -0 -0 -0 -0 -0 -0 -0 -0 -0 -0 0 0 -0 -1 -1 -0 -0 0 0 0 0 1 1 0 0 0 -0 -0 -0 -0 -0 0 0 0 0 0 -0 -0 -0 -0 -0 -0 -0 -0 nan
nan -1 -1 -1 -1 -1 -1 -1 -0 -0 -0 -0 -0 -0 -0 -0 -0 -0 0 0 0 -0 -0 -0 -0 -0 -0 -0 -0 -0 -0 -0 -0 0 0 0 0 -0 -1 -1 -0 0 0 0 0 1 1 1 0 0 -0 -0 -0 0 0 0 0 0 0 0 -0 -0 -0 -0 -0 -0 -0 -0 nan
nan -1 -1 -1 -1 -1 -0 -0 -0 -0 -0 -0 -0 0 0 -0 -0 -0 -0 0 0 0 0 0 0 0 0 0 -0 -0 -0 -0 -0 0 0 0 0 -0 -0 -0 -0 0 0 0 0 0 1 1 0 0 -0 -0 -0 0 0 0 0 0 0 0 -0 -0 -0 -1 -0 -0 -0 -0 nan
nan -1 -0 -0 -0 -0 -0 -0 -0 -0 0 0 -0 -0 0 0 -0 -0 -0 0 0 0 0 0 0 0 0 0 0 0 -0 -0 -0 -0 0 0 0 -0 -1 -1 -0 0 1 0 0 0 0 0 0 0 -0 -0 -0 0 0 0 0 0 -0 -0 -0 -0 -1 -0 -0 -0 -0 -0 nan
nan -0 -0 -0 -0 -0 -0 0 0 0 0 0 0 0 -0 0 0 0 0 0 -0 -0 -0 -0 -0 -0 0 0 0 0 0 0 -0 -0 -0 0 0 -0 -1 -1 -1 0 1 0 0 0 0 0 0 0 -0 -0 -0 0 0 0 0 -0 -0 -0 -1 -1 -0 -0 -0 -0 -0 -0 nan
nan -0 -0 -0 -0 0 0 0 0 0 0 0 0 0 -0 -0 -0 0 0 0 -0 -0 -0 -0 -0 -0 -0 -0 -0 -0 0 1 0 -0 -0 0 0 -0 -1 -1 -1 -0 0 0 0 -0 0 0 -0 -0 -0 -0 -0 -0 0 0 -0 -0 -0 -1 -1 -1 -0 -0 -0 -0 -0 -0 nan
nan 0 0 0 0 0 0 0 0 0 0 0 0 0 0 -0 -0 -0 0 0 0 -0 -1 -1 -0 -0 0 0 -0 -0 0 1 1 1 0 0 0 0 -0 -1 -1 -1 -0 0 0 -0 -0 0 -0 -0 -0 -0 -0 -0 -0 -0 -0 -0 -1 -1 -1 -1 -0 -0 -0 -0 -1 -1 nan
nan 0 0 0 0 0 0 0 0 0 0 0 0 0 0 0 -0 -0 0 0 0 0 -0 -1 -1 -0 0 0 -0 -1 -0 0 1 1 1 0 0 0 -0 -1 -1 -1 -1 -0 0 -0 -0 -0 -0 -0 -0 -0 -0 -0 -0 -0 -0 -0 -1 -1 -1 -1 -0 -0 -0 -0 -1 -1 nan
nan 0 0 0 0 0 0 0 0 0 0 0 0 -0 0 0 -0 -0 0 0 0 1 0 -0 -0 -0 0 0 0 -0 -1 -0 1 1 1 1 0 0 -0 -0 -1 -1 -1 -0 0 0 -0 -0 -0 -0 -0 -0 -0 -0 -0 -0 -0 -1 -1 -1 -1 -1 -0 0 0 -0 -1 -1 nan
nan nan nan nan nan nan nan nan nan nan nan nan nan nan nan nan nan nan nan nan nan nan nan nan nan nan nan nan nan nan nan nan nan nan nan nan nan nan nan nan nan nan nan nan nan nan nan nan nan nan nan nan nan nan nan nan nan nan nan nan nan nan nan nan nan nan nan nan nan
Wind_Speed
11 12 13 14 15 16 16 17 17 18 18 18 18 19 19 20 20 21 21 22 23 23 24 24 25 25 25 25 25 25 25 25 25 25 26 26 26 27 27 27 28 28 29 29 29 29 29 29 29 30 30 30 30 30 30 29 29 29 29 29 30 30 30 31 32 32 32 33 33
12 13 14 15 15 16 16 16 16 17 17 17 18 18 19 20 20 21 22 22 23 23 24 24 24 25 25 25 25 25 25 25 25 25 26 26 26 26 27 27 28 28 29 29 29 29 29 29 29 30 30 30 30 30 30 29 29 29 29 30 30 30 30 31 32 32 33 33 33
12 13 14 14 14 15 15 15 15 16 16 17 17 18 19 19 20 21 21 22 23 23 23 24 24 24 24 25 25 25 25 25 25 26 26 26 26 27 27 27 28 28 28 29 29 29 29 29 29 29 30 30 30 30 30 30 29 29 30 30 30 30 30 31 31 32 32 33 33
12 13 13 13 14 14 14 15 15 16 16 17 18 18 19 19 20 21 21 22 22 23 23 24 24 24 25 25 25 26 26 26 26 26 26 27 27 27 27 28 28 28 28 28 29 29 29 29 29 29 29 30 30 30 30 30 30 30 30 30 30 30 30 30 31 31 32 33 33
12 13 13 13 13 14 14 15 16 16 17 18 18 19 19 19 20 21 21 22 22 23 23 24 25 25 26 26 26 27 27 27 27 27 27 27 27 27 28 28 28 28 28 28 28 28 28 29 29 29 29 29 30 30 30 30 30 30 30 30 30 30 30 30 30 30 31 32 32
13 13 13 13 13 14 15 15 16 17 17 18 18 19 19 20 20 21 22 23 23 24 25 25 26 26 27 27 27 28 28 28 28 28 28 28 28 28 28 28 28 28 28 28 28 28 28 28 29 29 29 29 30 30 30 30 30 30 30 30 30 30 30 30 30 30 31 32 32
12 12 13 13 14 14 15 16 16 17 17 18 18 19 20 20 21 22 23 24 25 25 26 26 27 27 28 28 29 29 29 29 29 29 28 29 29 29 29 29 29 29 29 28 28 28 28 28 28 29 29 29 30 30 30 29 29 30 30 31 31 30 30 31 31 31 31 32 32
12 12 13 13 14 15 15 16 16 17 17 18 19 19 20 21 22 23 24 25 26 27 27 28 28 28 29 29 29 29 29 29 29 29 29 29 29 29 29 29 29 29 29 29 28 28 28 28 28 29 29 29 29 29 29 29 29 29 30 31 31 31 31 31 32 32 32 33 33
12 13 13 14 14 15 15 16 16 17 17 18 19 20 21 22 23 24 25 26 27 28 28 28 29 29 29 29 29 29 29 29 29 29 29 29 29 29 30 30 29 29 29 28 28 28 28 28 28 28 28 28 29 29 29 29 29 30 30 31 31 31 31 32 32 32 33 34 34
12 13 13 14 14 14 15 15 16 17 17 18 19 20 22 23 24 25 26 27 28 29 29 29 29 29 29 29 29 29 29 29 29 29 29 29 29 29 29 29 29 29 29 28 28 28 28 28 28 28 28 28 28 29 29 29 29 30 31 31 31 32 32 32 32 32 33 33 34
12 13 13 13 14 14 15 15 16 17 17 19 20 21 23 24 25 26 27 28 29 29 29 29 29 29 29 29 29 29 29 29 29 29 29 29 29 29 29 29 29 29 28 28 28 27 28 28 28 28 28 28 29 29 29 29 30 30 31 31 31 32 32 32 31 32 32 33 34
12 13 13 13 13 14 14 15 16 17 18 20 21 23 24 26 27 28 29 29 30 30 30 30 29 29 29 29 29 29 29 29 29 29 29 29 29 29 29 29 29 28 28 28 27 27 27 28 28 28 29 29 29 29 30 30 30 31 31 31 31 32 32 32 32 31 32 32 33
12 12 12 12 13 14 14 15 17 18 20 22 23 25 26 27 28 29 30 30 30 30 30 30 29 29 29 29 29 29 29 29 29 29 29 29 29 29 29 29 29 29 28 28 27 27 27 28 28 28 29 29 30 30 30 30 30 31 32 32 32 32 32 32 32 32 32 32 33
11 11 12 12 13 14 15 17 18 20 22 24 25 27 28 29 30 30 30 30 30 30 30 30 29 29 29 29 29 29 29 29 29 29 29 30 30 30 29 29 29 29 28 28 28 28 28 28 28 29 29 30 30 30 30 30 31 31 32 32 32 32 32 32 32 32 32 32 33
11 11 12 13 14 15 17 18 20 22 24 26 27 28 29 30 30 30 30 30 30 30 30 30 30 29 29 29 29 29 29 29 30 30 30 30 30 30 30 30 29 29 29 29 28 28 28 28 29 29 30 30 31 31 31 31 31 31 31 32 32 32 32 32 31 31 31 31 32
10 11 12 13 15 17 19 21 23 25 26 28 29 30 30 31 31 31 30 30 30 30 30 30 30 30 30 29 29 29 29 30 30 30 30 30 30 30 30 30 29 29 29 29 29 29 29 29 29 29 30 31 31 31 31 31 31 31 31 31 31 31 31 31 31 31 31 31 32
11 12 13 15 17 19 21 23 25 27 28 29 30 31 31 31 31 30 30 30 30 30 30 30 30 30 30 30 29 29 29 30 30 30 30 30 30 30 30 30 29 29 29 29 29 29 29 29 29 30 30 31 31 31 31 31 31 31 31 30 30 30 30 30 30 31 31 32 33
12 13 15 17 19 21 23 25 27 28 30 30 31 31 31 30 30 30 29 29 29 30 30 30 30 30 30 30 30 29 29 30 30 30 30 30 30 30 30 29 29 29 29 29 29 30 30 30 30 30 30 31 31 31 31 31 31 31 31 31 30 31 31 31 31 32 33 33 34
13 15 17 18 20 23 25 27 28 30 30 31 31 31 30 30 29 29 29 29 29 29 30 30 30 30 30 29 29 29 29 29 30 30 30 29 29 29 29 29 29 29 29 29 29 29 30 30 30 30 30 31 31 31 31 31 31 31 31 31 31 32 32 33 33 33 34 34 35
15 16 18 20 22 24 27 28 30 31 31 31 31 30 30 29 29 29 29 29 29 29 29 30 30 30 30 30 29 29 29 29 29 29 29 29 29 29 29 29 29 29 29 29 29 29 30 30 30 30 31 31 31 31 31 31 31 32 32 32 33 33 33 34 34 34 34 35 35
16 18 20 22 24 26 28 29 30 31 31 30 30 30 29 29 29 29 29 29 30 29 29 29 29 29 29 29 29 29 29 29 29 29 29 29 28 28 28 28 29 29 29 29 29 29 29 30 30 30 31 31 31 31 31 32 32 33 33 33 34 34 34 34 35 35 35 35 35
18 19 21 24 26 28 29 30 31 31 30 30 29 29 29 29 29 29 29 30 30 29 29 29 29 29 29 29 29 29 29 29 28 28 28 28 28 28 28 28 28 28 29 29 29 29 29 30 30 31 31 31 31 32 32 32 33 34 34 35 35 35 35 35 35 35 35 35 35
19 21 23 25 27 29 30 31 31 31 30 30 29 29 29 29 30 30 30 30 30 29 29 29 29 29 29 29 29 29 29 29 28 28 28 28 28 28 28 28 28 28 28 28 29 29 30 31 31 31 31 31 31 32 32 32 33 34 35 35 35 35 35 35 35 35 35 35 35
21 23 25 27 29 30 31 31 31 30 30 30 30 30 30 30 30 30 30 30 30 29 29 29 29 29 29 28 28 28 28 28 28 28 28 28 28 28 28 28 28 28 28 29 29 29 30 31 31 31 31 31 31 31 32 32 33 33 34 35 35 36 36 36 35 35 34 34 35
22 25 27 28 30 31 31 31 31 30 30 30 30 30 30 31 31 31 31 30 30 30 29 29 29 29 29 28 28 28 28 28 28 29 29 29 28 28 28 28 28 28 29 29 29 29 30 30 30 30 30 30 31 31 31 32 32 33 33 34 35 36 36 36 36 35 35 35 35
24 26 28 30 31 31 31 31 31 30 31 31 31 31 31 31 31 31 31 30 30 30 29 29 29 29 29 28 28 28 28 28 28 29 29 29 29 29 29 29 29 29 29 29 29 30 30 30 29 28 29 29 30 31 31 32 32 32 33 34 35 35 36 36 36 36 36 35 35
26 28 30 31 31 31 31 31 31 31 31 32 32 32 32 32 32 31 31 30 30 30 29 29 29 29 29 28 28 29 29 29 29 29 30 30 30 30 29 29 29 29 29 30 30 30 30 30 29 28 28 28 29 30 31 32 32 33 33 34 35 35 36 36 36 36 36 35 35
27 29 31 31 32 31 31 31 32 32 32 32 32 33 33 32 32 31 31 30 30 29 29 29 29 28 29 29 29 29 29 30 30 30 30 30 30 30 30 30 30 30 30 30 30 30 30 30 29 28 27 28 28 29 30 31 32 33 34 35 35 36 36 36 35 35 35 35 34
29 30 31 32 32 32 32 32 32 32 33 33 33 33 33 33 32 32 31 30 30 29 29 29 29 29 29 29 29 30 30 30 30 30 30 30 30 30 30 30 30 30 30 30 30 31 30 29 29 28 28 27 28 29 30 31 32 33 34 35 35 35 35 34 34 34 34 34 34
30 31 32 32 32 32 32 32 32 33 33 33 33 33 33 33 32 32 31 30 30 29 29 29 29 29 29 30 30 30 31 31 31 31 31 31 31 31 31 30 31 31 31 30 31 30 30 29 28 28 28 28 28 29 30 31 32 33 34 35 35 34 33 33 32 32 32 32 32
31 32 32 32 33 33 33 33 33 33 33 33 33 33 33 33 32 32 31 30 29 29 29 29 29 29 30 30 31 31 31 31 31 31 31 31 31 31 31 31 31 31 31 31 31 30 30 29 29 28 28 28 28 29 29 30 32 33 34 34 34 33 32 31 31 31 31 30 30
31 32 32 32 33 33 33 33 33 33 33 33 33 33 33 33 32 31 30 29 29 29 29 29 30 30 31 31 32 32 32 32 32 31 31 31 32 32 32 31 31 31 31 31 31 30 30 29 29 29 29 28 28 29 29 30 31 32 33 33 32 31 30 30 29 29 28 27 27
32 32 32 32 33 33 33 32 32 32 33 33 33 33 33 32 31 30 29 29 29 29 29 30 30 31 32 32 33 33 33 32 32 32 31 31 32 32 32 32 32 31 31 31 31 30 30 29 29 29 29 29 29 29 30 31 31 32 32 32 31 30 29 28 27 26 26 25 25
32 32 32 32 32 32 32 32 32 32 32 32 33 32 32 31 31 30 29 29 29 29 29 30 31 31 32 32 33 33 33 33 32 32 32 32 32 32 32 32 32 31 31 31 31 30 30 30 29 29 29 29 29 30 30 31 31 32 32 31 30 28 26 25 24 24 24 24 25
32 32 32 32 32 32 32 32 32 32 32 32 32 32 31 30 30 29 29 29 29 29 30 30 31 32 32 32 33 33 33 33 33 32 32 32 32 33 33 33 32 32 31 31 31 30 30 30 29 29 29 29 29 30 30 31 31 31 31 30 28 26 24 23 22 23 24 25 26
32 32 32 32 32 31 31 31 31 31 31 31 31 31 30 30 29 29 29 29 29 30 31 31 32 32 33 33 33 33 33 33 33 33 33 32 33 33 33 33 32 32 31 31 31 31 30 30 30 29 29 29 29 30 30 31 31 31 30 28 26 24 22 22 23 24 26 27 27
31 31 31 31 31 31 31 30 30 30 30 30 30 30 30 29 29 28 28 29 30 31 32 32 33 33 33 33 33 33 33 32 33 33 33 33 33 33 33 34 33 32 32 32 31 31 31 31 30 29 29 29 29 29 30 31 31 30 28 26 24 23 23 24 26 27 28 28 27
31 31 30 30 30 30 30 29 29 29 30 29 29 29 29 28 29 29 29 29 30 31 32 33 33 33 33 33 33 33 33 33 33 33 33 33 33 33 33 34 34 33 33 32 32 32 31 31 30 29 28 28 28 29 30 31 31 29 27 25 24 24 25 26 28 29 29 28 26
30 30 29 29 29 29 29 28 28 28 28 28 28 28 28 28 28 29 29 29 30 31 32 33 33 33 33 33 33 34 33 33 33 33 33 33 33 32 33 34 34 34 34 33 33 32 32 31 30 29 28 27 28 29 30 30 30 28 26 25 25 26 27 29 30 31 30 27 26
29 29 28 28 28 28 28 28 27 27 27 27 27 27 27 28 28 29 29 30 30 31 32 33 33 33 33 33 34 34 34 34 33 33 33 33 33 33 33 34 35 35 35 34 33 33 32 31 30 28 27 27 28 28 29 29 28 27 25 25 26 28 30 31 31 31 30 28 28
28 28 27 27 27 27 27 27 27 27 26 26 26 27 27 28 28 29 30 30 31 31 32 33 33 33 33 33 34 34 35 34 34 33 33 33 33 33 33 34 35 35 35 34 33 33 32 31 29 28 27 27 27 28 27 27 26 26 26 27 29 31 33 33 32 31 30 30 30
Wind_Direction
287 293 297 301 303 305 307 309 310 312 314 315 317 317 318 318 317 317 316 316 316 316 316 317 318 318 319 319 320 320 319 319 318 317 316 315 314 313 312 311 310 309 309 308 308 308 307 307 306 305 304 304 303 303 303 303 303 302 301 299 298 297 296 295 294 294 294 294 293
289 295 298 301 303 306 308 310 312 314 316 317 317 318 318 317 316 316 316 316 316 316 317 318 318 319 320 320 321 320 319 318 317 316 314 313 312 311 310 309 308 308 307 307 307 307 307 306 306 305 304 304 304 304 304 304 304 303 301 300 298 296 295 293 292 292 292 292 292
289 294 298 301 303 306 308 310 312 314 315 316 317 317 317 316 316 315 315 316 316 317 318 319 320 321 321 321 321 320 319 318 316 315 314 312 311 310 309 308 307 307 307 307 307 307 306 306 305 305 305 305 305 304 304 304 304 302 301 299 298 296 294 292 291 291 291 290 290
287 292 295 299 302 305 307 309 311 312 313 315 316 316 316 316 316 316 316 317 318 319 321 321 322 322 322 322 321 320 319 318 316 315 314 312 311 310 309 308 308 307 307 307 307 307 307 306 306 305 305 305 304 304 304 304 303 301 300 298 297 296 294 292 290 290 289 289 289
286 290 294 298 301 304 306 309 311 313 314 315 316 317 317 317 317 318 318 319 321 322 323 323 323 323 322 321 320 319 318 317 316 315 314 313 312 311 310 309 308 308 308 308 308 308 308 307 306 305 305 304 304 303 303 303 302 300 299 297 296 295 293 292 290 288 286 285 285
286 290 295 298 302 305 308 311 314 315 316 317 318 318 318 319 320 321 322 323 323 324 324 324 324 323 322 320 319 318 317 316 315 314 313 312 311 310 310 309 309 309 308 308 308 309 308 308 306 306 305 304 303 302 302 302 300 299 298 297 296 295 294 292 290 288 285 283 281
286 291 296 300 304 308 311 314 316 317 319 319 320 321 321 322 323 324 325 325 325 325 325 324 323 322 320 319 318 317 316 315 314 313 312 311 311 310 310 309 309 309 309 309 309 309 308 307 306 305 304 304 303 302 302 301 300 299 298 297 296 295 294 293 292 290 288 285 282
288 293 298 303 307 311 314 317 318 319 321 322 323 324 324 325 326 327 327 327 326 326 325 323 322 321 319 318 317 316 315 314 314 313 312 311 311 310 310 309 309 309 309 309 309 308 308 307 305 304 304 303 303 302 302 301 301 299 298 297 296 295 295 294 293 292 290 289 287
292 297 302 306 311 314 317 319 320 322 323 324 325 326 327 328 328 328 327 326 326 325 324 322 321 320 319 318 317 316 315 315 314 313 313 312 312 311 311 310 310 310 310 309 309 308 307 306 304 303 303 303 303 302 302 302 301 300 298 297 297 296 295 294 293 293 292 290 289
295 300 305 310 314 317 319 321 323 324 325 327 327 328 329 329 328 328 327 326 325 324 323 322 321 320 319 318 318 317 317 316 316 315 314 314 313 313 312 312 311 311 310 310 309 308 307 305 304 303 303 303 303 303 303 302 302 301 299 298 298 297 296 295 294 293 292 291 290
299 304 309 314 317 319 321 323 325 326 327 328 328 329 329 329 328 327 326 325 324 324 323 322 321 321 320 320 320 319 319 318 318 317 316 316 315 315 314 313 313 312 312 311 310 309 308 306 305 304 304 304 304 304 304 303 303 302 301 300 299 298 297 296 295 294 294 293 292
303 309 313 317 320 321 323 324 325 326 327 328 329 329 329 329 328 327 326 325 325 324 323 323 323 322 322 322 322 321 321 320 320 319 318 317 317 316 316 315 314 314 313 313 312 311 309 308 307 306 306 305 305 305 305 305 305 303 303 302 301 300 299 298 297 297 296 295 295
308 313 316 319 321 323 324 325 326 327 328 329 330 329 329 329 328 328 327 326 325 325 324 324 324 324 324 324 323 323 323 322 321 320 319 319 318 318 317 316 316 315 315 314 314 313 311 310 309 308 308 307 307 307 307 307 307 306 305 304 303 302 301 300 299 299 298 297 296
312 316 318 320 322 323 324 325 327 328 330 330 330 330 330 329 329 328 327 327 326 326 325 325 325 325 325 325 325 324 324 323 322 321 320 319 319 318 318 317 317 317 316 316 315 314 313 311 311 310 309 309 309 309 309 309 309 308 307 306 305 304 303 302 301 300 300 299 298
315 317 319 321 322 324 326 328 329 330 331 331 331 331 330 330 329 328 328 327 327 327 327 327 326 326 326 326 326 325 324 323 322 321 321 320 320 319 319 318 318 318 317 317 316 314 313 312 312 312 311 311 311 311 311 311 310 309 308 307 306 305 304 303 302 302 301 300 300
315 317 319 322 324 326 328 330 331 332 332 332 331 331 330 330 329 329 329 328 328 328 327 328 327 327 327 327 326 326 325 324 323 322 321 321 320 320 319 319 319 318 318 317 316 314 314 313 313 313 313 313 313 313 312 312 311 310 309 307 306 305 305 304 304 304 303 303 302
316 319 321 324 327 329 331 332 333 333 333 332 331 331 330 330 330 329 329 329 329 329 328 328 328 328 328 327 327 326 325 324 323 322 322 321 321 320 320 319 319 318 318 317 316 315 314 314 314 314 314 314 313 313 313 312 312 311 310 309 308 307 307 307 307 306 306 305 304
319 322 325 327 330 332 333 334 334 333 333 332 331 331 330 330 330 330 330 330 330 330 329 329 328 328 328 327 327 326 325 324 323 322 322 321 321 320 320 319 319 318 317 316 316 315 315 315 315 315 314 314 314 313 313 313 312 312 311 311 310 310 309 309 309 308 307 307 306
322 325 328 330 332 333 334 334 334 333 333 332 331 331 331 331 331 331 331 330 330 330 330 329 329 328 328 327 327 326 325 324 323 322 322 321 321 320 320 319 319 318 317 316 316 315 315 316 316 315 315 315 314 314 314 314 314 313 313 312 312 311 310 310 309 308 308 307 306
325 328 330 332 333 334 334 334 333 333 332 332 332 332 332 332 332 331 331 331 331 330 330 329 329 328 328 327 326 325 324 324 323 323 322 322 321 321 320 319 319 318 317 316 316 316 316 316 316 316 316 316 316 316 316 316 315 315 314 313 311 311 310 309 309 308 307 307 307
328 330 331 332 333 333 333 333 333 333 332 332 332 332 333 332 332 332 332 331 331 331 330 330 329 329 328 327 326 325 325 324 324 324 323 323 322 321 321 320 319 318 317 317 316 317 317 317 317 317 317 318 318 318 318 317 316 314 313 311 310 309 309 308 308 307 307 307 306
329 330 331 332 333 333 333 333 333 333 333 333 333 333 333 333 333 332 332 331 331 331 331 330 330 329 328 328 327 326 325 325 325 324 324 323 322 322 321 320 319 318 317 317 318 318 318 318 319 319 319 319 319 318 317 316 314 312 311 310 309 309 308 308 307 307 306 306 306
330 330 331 332 332 332 333 333 333 333 333 334 334 334 334 333 333 332 332 332 332 332 331 331 330 329 328 328 327 326 326 326 325 325 324 324 323 322 321 321 320 319 318 319 319 320 320 320 321 321 320 319 318 316 314 312 311 309 309 308 308 308 307 307 306 306 305 305 304
330 330 331 331 332 332 333 333 333 334 334 335 335 335 334 334 333 333 333 333 333 333 332 331 330 329 329 328 327 327 327 327 326 326 325 325 324 323 322 322 321 320 320 320 321 321 322 322 321 320 318 316 314 312 310 308 308 307 307 307 307 307 306 305 305 304 304 303 303
329 330 330 331 332 332 333 334 334 335 336 336 336 335 335 334 334 334 334 334 334 333 332 332 330 329 329 328 328 328 328 328 327 327 326 326 325 324 323 323 322 321 321 321 322 322 322 321 319 316 314 311 309 308 307 306 306 306 306 306 306 305 305 304 304 303 303 302 302
329 329 330 331 332 333 334 335 336 337 337 337 336 336 336 335 335 335 335 334 334 333 332 331 330 329 329 328 328 329 329 329 328 327 327 326 326 325 324 323 323 322 322 322 322 322 322 320 316 313 310 309 308 307 306 306 306 306 305 305 305 304 304 304 303 303 303 302 303
329 330 331 332 333 334 335 336 337 338 338 338 337 337 336 336 335 335 335 334 333 332 331 331 330 330 329 329 329 330 329 329 329 328 327 326 326 325 325 324 323 323 323 322 322 322 321 318 315 313 310 309 308 307 307 306 306 306 305 305 304 304 304 304 304 304 304 303 304
330 331 331 332 334 335 336 338 338 339 338 338 337 337 336 336 335 334 334 333 332 331 331 330 330 330 330 330 330 330 330 329 329 328 327 327 326 325 325 324 323 323 323 323 322 322 320 317 315 314 311 309 308 307 306 306 305 305 305 304 304 304 304 304 304 304 304 304 305
331 332 333 334 335 336 338 338 339 338 338 337 337 336 335 334 334 333 332 331 331 331 331 330 330 330 330 330 330 330 330 329 329 328 327 327 326 325 325 324 323 323 323 323 322 321 320 317 316 314 311 309 308 307 306 305 305 304 304 304 304 304 305 305 304 304 304 304 305
332 333 334 335 336 337 338 339 338 338 337 336 335 334 333 332 331 331 330 330 330 330 330 330 330 330 330 330 330 330 330 329 329 328 328 327 325 325 324 324 323 323 323 323 322 322 320 317 315 313 311 309 308 306 305 305 304 304 304 304 304 305 305 305 304 304 304 305 306
334 335 336 337 337 338 338 338 337 337 335 334 332 331 330 329 329 329 329 329 329 329 330 330 330 330 330 330 330 330 329 329 329 328 327 326 325 324 324 324 323 323 323 323 323 322 320 317 315 313 311 310 308 307 305 304 304 303 303 304 304 305 305 305 305 304 305 306 308
335 336 337 337 337 337 337 336 335 334 332 331 329 328 327 327 327 327 328 329 329 329 330 330 330 330 330 330 330 329 329 328 328 327 327 326 325 324 324 323 323 323 324 324 324 322 319 317 315 313 312 310 308 307 305 304 303 303 303 304 305 306 306 305 305 305 306 308 310
337 337 337 337 337 336 335 334 333 331 329 327 326 325 325 325 326 327 328 329 329 329 329 329 329 329 329 329 328 328 328 327 327 326 326 326 325 324 323 323 323 324 324 324 323 322 319 317 316 314 313 311 309 307 305 304 303 304 305 306 307 307 306 305 305 306 308 310 312
337 337 337 336 335 334 332 331 329 327 325 324 323 323 324 325 326 327 328 329 329 329 329 329 329 328 328 328 327 327 326 326 326 326 325 325 325 324 323 323 323 324 324 324 323 322 320 318 317 315 313 311 309 307 305 305 305 306 307 307 307 306 305 304 306 308 310 312 312
337 337 336 334 333 331 330 328 326 324 322 321 321 323 324 325 326 327 328 329 329 329 329 329 329 328 328 327 327 326 325 325 325 325 325 325 324 324 323 323 323 324 324 324 324 323 322 320 317 315 314 311 309 307 306 306 306 307 307 306 305 305 305 307 310 311 312 313 313
337 335 334 332 330 328 326 325 323 322 321 321 322 323 324 326 327 328 329 329 329 328 328 328 328 328 327 327 326 325 325 324 324 324 325 325 324 323 323 323 323 324 324 324 324 323 322 320 318 316 314 311 309 308 307 307 306 306 306 305 305 306 309 313 315 315 315 314 315
335 333 331 329 327 325 324 322 321 320 320 321 322 323 325 326 327 328 329 329 328 328 327 328 327 327 326 326 325 325 324 324 324 324 324 324 324 323 322 322 323 323 324 324 324 323 321 320 318 317 314 312 309 308 307 306 306 306 305 305 307 310 314 318 318 318 317 315 315
333 331 328 326 324 323 322 321 321 320 321 322 323 324 325 326 327 328 329 329 328 327 326 326 326 326 325 325 324 324 324 324 324 323 323 323 324 323 322 322 322 323 323 324 323 322 320 319 318 316 314 311 309 307 307 306 305 305 305 307 309 314 318 320 320 318 316 315 315
330 328 326 323 322 322 321 321 321 321 322 322 323 324 325 326 327 328 329 329 328 326 325 325 324 325 325 324 323 323 323 324 324 324 323 323 323 323 322 321 321 321 322 322 322 321 319 318 317 316 314 311 309 307 306 306 305 305 305 308 312 315 318 319 318 316 314 313 316
328 326 324 323 322 322 321 321 321 322 322 323 323 324 325 326 326 327 328 328 327 326 325 324 324 324 324 324 323 322 322 323 324 324 324 323 323 323 322 321 320 320 321 321 321 320 318 317 316 314 313 311 309 307 306 305 304 303 305 308 312 314 315 315 314 312 311 312 316
326 325 324 323 323 322 321 321 322 322 323 323 324 324 325 326 326 327 328 327 327 326 325 324 324 324 324 323 323 322 322 322 323 324 324 324 323 322 321 320 319 319 320 320 320 318 317 315 314 313 312 311 309 307 306 304 302 302 304 308 311 312 312 312 310 308 308 311 315
Height
1544 1544 1544 1544 1543 1543 1543 1543 1542 1542 1541 1541 1540 1539 1539 1538 1537 1537 1536 1535 1534 1533 1532 1531 1530 1529 1528 1527 1526 1525 1524 1523 1523 1522 1521 1520 1519 1518 1518 1517 1516 1515 1514 1513 1512 1511 1510 1509 1508 1506 1505 1504 1503 1502 1502 1501 1500 1499 1498 1498 1497 1496 1496 1495 1494 1493 1493 1492 1492
1543 1543 1543 1543 1542 1542 1542 1541 1541 1540 1540 1539 1538 1538 1537 1537 1536 1535 1534 1533 1533 1531 1530 1529 1528 1527 1526 1525 1524 1523 1523 1522 1521 1520 1519 1518 1517 1516 1515 1514 1514 1513 1512 1511 1510 1508 1508 1506 1505 1504 1503 1502 1501 1500 1499 1498 1498 1497 1496 1495 1495 1494 1493 1492 1491 1491 1490 1490 1489
1542 1542 1542 1541 1541 1541 1540 1540 1539 1539 1538 1538 1537 1537 1536 1535 1534 1533 1533 1532 1531 1530 1529 1528 1527 1526 1524 1523 1523 1522 1521 1520 1519 1518 1517 1516 1515 1514 1513 1513 1511 1510 1509 1508 1508 1506 1505 1504 1503 1502 1500 1499 1498 1498 1497 1496 1496 1495 1494 1493 1492 1492 1491 1490 1489 1489 1488 1487 1487
1541 1541 1541 1540 1540 1539 1539 1538 1538 1538 1537 1536 1536 1535 1534 1533 1533 1532 1531 1530 1529 1528 1527 1526 1525 1524 1523 1522 1521 1520 1519 1518 1517 1516 1515 1514 1513 1512 1511 1510 1509 1508 1507 1506 1505 1504 1503 1502 1501 1499 1498 1497 1496 1495 1494 1493 1493 1492 1491 1491 1490 1489 1488 1488 1487 1487 1486 1485 1484
1540 1540 1539 1539 1538 1538 1538 1537 1537 1536 1535 1535 1534 1533 1533 1532 1531 1530 1529 1528 1527 1526 1525 1524 1523 1522 1521 1520 1519 1518 1517 1516 1515 1514 1513 1512 1511 1510 1509 1508 1507 1506 1505 1504 1503 1502 1501 1499 1498 1497 1496 1495 1494 1493 1492 1491 1490 1489 1489 1488 1488 1487 1486 1485 1485 1484 1484 1483 1482
1539 1538 1538 1538 1537 1537 1536 1536 1535 1534 1534 1533 1533 1532 1531 1530 1529 1528 1527 1526 1525 1524 1523 1522 1521 1520 1519 1518 1517 1516 1515 1514 1513 1512 1511 1510 1508 1508 1507 1506 1505 1504 1503 1502 1501 1500 1498 1497 1496 1494 1493 1493 1491 1490 1490 1489 1488 1487 1486 1485 1484 1484 1483 1483 1482 1482 1481 1480 1479
1538 1537 1537 1536 1536 1535 1535 1534 1533 1533 1532 1532 1531 1530 1529 1528 1528 1527 1525 1524 1523 1522 1521 1520 1519 1518 1517 1516 1515 1514 1513 1512 1511 1510 1508 1508 1506 1505 1504 1503 1502 1501 1500 1499 1498 1497 1496 1495 1493 1492 1491 1490 1489 1488 1487 1487 1486 1484 1483 1482 1482 1481 1481 1480 1479 1478 1478 1477 1476
1536 1536 1535 1535 1534 1534 1533 1533 1532 1531 1531 1530 1529 1528 1528 1527 1526 1524 1523 1523 1522 1520 1519 1518 1518 1516 1515 1514 1513 1512 1511 1509 1508 1507 1506 1505 1504 1503 1502 1501 1500 1499 1498 1497 1496 1495 1493 1493 1491 1490 1488 1488 1486 1485 1485 1484 1483 1482 1481 1479 1478 1478 1478 1477 1476 1475 1475 1474 1473
1535 1534 1534 1533 1533 1532 1532 1531 1530 1530 1529 1528 1528 1527 1526 1525 1524 1523 1522 1521 1520 1519 1518 1517 1515 1514 1513 1512 1511 1510 1508 1507 1506 1505 1504 1503 1502 1500 1499 1498 1497 1496 1495 1495 1493 1492 1491 1490 1488 1487 1486 1485 1484 1483 1482 1481 1480 1479 1478 1477 1476 1475 1475 1474 1473 1473 1472 1471 1470
1533 1533 1533 1532 1531 1531 1530 1530 1529 1528 1528 1527 1526 1525 1524 1523 1522 1521 1520 1519 1518 1517 1516 1515 1513 1512 1511 1510 1509 1508 1506 1505 1504 1503 1501 1500 1499 1498 1497 1496 1495 1494 1493 1492 1491 1490 1488 1487 1486 1484 1483 1483 1482 1480 1479 1478 1478 1476 1475 1474 1473 1472 1471 1471 1471 1470 1469 1468 1467
1532 1532 1531 1531 1530 1529 1529 1528 1528 1527 1526 1526 1525 1524 1523 1522 1521 1519 1518 1517 1516 1515 1514 1513 1511 1510 1509 1508 1507 1505 1504 1503 1501 1500 1499 1498 1497 1496 1494 1493 1492 1491 1490 1489 1488 1487 1486 1484 1483 1482 1481 1480 1479 1478 1477 1476 1475 1473 1472 1471 1471 1470 1468 1468 1467 1467 1466 1464 1463
1531 1530 1530 1529 1529 1528 1528 1527 1526 1526 1525 1524 1523 1522 1521 1520 1519 1518 1516 1515 1514 1513 1512 1511 1509 1508 1507 1505 1504 1503 1502 1500 1499 1498 1497 1495 1494 1493 1492 1491 1490 1489 1488 1487 1486 1484 1483 1482 1480 1479 1478 1477 1476 1475 1474 1473 1472 1471 1469 1468 1468 1467 1466 1464 1464 1463 1463 1462 1460
1529 1529 1528 1528 1527 1527 1526 1526 1525 1524 1523 1522 1521 1520 1519 1518 1517 1516 1514 1513 1512 1511 1509 1508 1507 1506 1504 1503 1502 1501 1499 1498 1497 1495 1494 1493 1492 1491 1490 1488 1488 1486 1485 1484 1483 1482 1481 1479 1478 1477 1475 1474 1473 1473 1472 1471 1469 1468 1467 1466 1465 1464 1463 1462 1461 1460 1459 1458 1458
1528 1528 1527 1527 1526 1525 1525 1524 1523 1523 1522 1521 1519 1518 1517 1516 1515 1513 1512 1511 1510 1508 1507 1506 1505 1504 1503 1501 1500 1498 1497 1496 1494 1493 1492 1491 1489 1488 1487 1486 1485 1484 1483 1481 1480 1479 1478 1477 1475 1474 1473 1472 1470 1469 1469 1468 1467 1466 1464 1463 1462 1461 1460 1459 1458 1458 1457 1455 1454
1527 1526 1526 1525 1525 1524 1523 1523 1522 1521 1520 1518 1518 1516 1515 1514 1513 1512 1510 1509 1508 1506 1505 1504 1503 1501 1500 1499 1498 1496 1495 1493 1492 1491 1489 1488 1487 1486 1485 1483 1482 1481 1480 1479 1478 1477 1476 1474 1473 1472 1470 1469 1468 1467 1466 1465 1464 1463 1462 1461 1459 1458 1457 1456 1455 1455 1454 1453 1452
1525 1525 1524 1524 1523 1523 1522 1521 1520 1519 1518 1517 1515 1514 1513 1512 1511 1509 1508 1507 1505 1504 1503 1502 1500 1499 1498 1497 1495 1494 1493 1491 1490 1488 1487 1486 1485 1483 1483 1481 1480 1479 1478 1476 1475 1474 1473 1472 1471 1470 1468 1467 1465 1464 1463 1462 1461 1460 1459 1458 1457 1456 1455 1454 1453 1452 1451 1450 1449
1524 1523 1523 1523 1522 1521 1520 1519 1518 1517 1516 1515 1513 1512 1511 1510 1508 1507 1506 1505 1503 1502 1500 1499 1498 1497 1495 1494 1493 1492 1491 1489 1488 1487 1485 1484 1483 1481 1480 1479 1478 1477 1475 1474 1473 1472 1470 1469 1468 1467 1466 1464 1463 1462 1461 1460 1458 1458 1457 1455 1454 1453 1452 1451 1450 1449 1448 1448 1446
1523 1522 1522 1521 1520 1519 1518 1517 1516 1515 1514 1513 1512 1510 1509 1508 1507 1505 1504 1503 1501 1500 1498 1497 1496 1495 1493 1492 1491 1490 1488 1487 1486 1484 1483 1482 1480 1479 1478 1477 1476 1474 1473 1472 1471 1469 1468 1467 1466 1465 1463 1462 1461 1459 1458 1457 1456 1455 1454 1453 1452 1451 1450 1449 1448 1447 1446 1445 1443
1521 1521 1520 1519 1519 1518 1517 1516 1514 1513 1512 1511 1509 1508 1507 1506 1504 1503 1502 1501 1499 1498 1496 1495 1494 1493 1491 1490 1489 1488 1487 1485 1483 1482 1481 1480 1478 1477 1476 1475 1473 1472 1471 1470 1468 1467 1466 1464 1463 1462 1461 1459 1458 1457 1456 1455 1453 1452 1451 1450 1449 1448 1447 1446 1445 1444 1443 1442 1441
1520 1519 1519 1518 1517 1516 1515 1514 1513 1511 1510 1509 1508 1506 1505 1504 1503 1501 1500 1498 1497 1496 1495 1493 1492 1490 1489 1488 1487 1485 1484 1483 1482 1480 1479 1478 1477 1475 1474 1473 1471 1470 1469 1468 1466 1465 1463 1462 1461 1460 1458 1457 1456 1454 1453 1452 1451 1450 1448 1448 1446 1445 1444 1443 1442 1441 1441 1439 1438
1519 1518 1517 1516 1515 1514 1513 1512 1511 1509 1508 1507 1506 1504 1503 1502 1501 1499 1498 1497 1495 1494 1493 1491 1490 1488 1487 1486 1484 1483 1482 1481 1480 1478 1477 1476 1474 1473 1472 1471 1469 1468 1467 1465 1464 1463 1461 1460 1458 1457 1456 1454 1453 1452 1451 1449 1448 1447 1446 1445 1444 1443 1442 1441 1440 1439 1438 1437 1436
1517 1517 1516 1515 1514 1513 1512 1510 1509 1508 1506 1505 1504 1503 1501 1500 1499 1498 1496 1495 1493 1492 1491 1489 1488 1487 1485 1484 1482 1481 1480 1479 1478 1477 1475 1474 1473 1471 1470 1469 1467 1466 1464 1463 1462 1460 1459 1458 1456 1455 1453 1452 1450 1449 1448 1447 1446 1444 1443 1442 1441 1440 1439 1439 1438 1437 1436 1435 1434
1516 1515 1514 1513 1512 1511 1510 1508 1507 1506 1504 1503 1502 1501 1499 1498 1497 1495 1494 1493 1492 1490 1489 1487 1486 1484 1483 1482 1480 1479 1478 1476 1475 1474 1473 1472 1470 1469 1468 1467 1465 1463 1462 1461 1459 1458 1457 1455 1453 1452 1451 1450 1448 1447 1446 1445 1444 1443 1441 1440 1439 1438 1437 1437 1436 1435 1434 1433 1432
1514 1513 1513 1512 1510 1509 1508 1507 1505 1504 1503 1501 1500 1499 1497 1496 1495 1493 1492 1491 1489 1488 1487 1485 1484 1483 1481 1480 1478 1477 1476 1474 1473 1472 1471 1470 1468 1467 1466 1464 1463 1462 1460 1459 1458 1456 1455 1453 1451 1450 1449 1448 1447 1446 1445 1443 1442 1441 1439 1438 1437 1436 1435 1434 1433 1433 1432 1431 1430
1513 1512 1511 1510 1509 1508 1506 1505 1503 1502 1501 1499 1498 1497 1495 1494 1493 1491 1490 1488 1487 1486 1484 1483 1482 1481 1479 1478 1477 1475 1474 1473 1471 1469 1468 1467 1466 1465 1463 1462 1461 1459 1458 1457 1456 1454 1453 1452 1451 1449 1448 1447 1445 1444 1443 1442 1441 1439 1438 1437 1435 1434 1433 1432 1431 1430 1429 1428 1427
1511 1510 1509 1508 1507 1506 1504 1503 1502 1500 1499 1497 1496 1495 1493 1492 1491 1489 1488 1486 1485 1484 1483 1481 1480 1478 1477 1476 1474 1473 1472 1471 1469 1468 1466 1465 1463 1462 1461 1460 1458 1457 1456 1455 1453 1452 1451 1450 1449 1448 1447 1445 1444 1442 1441 1439 1438 1437 1436 1435 1433 1432 1431 1429 1428 1427 1427 1426 1425
1509 1508 1507 1506 1505 1504 1503 1501 1499 1498 1497 1495 1494 1493 1491 1490 1488 1487 1486 1484 1483 1482 1481 1479 1478 1477 1475 1474 1473 1471 1470 1468 1467 1466 1464 1463 1461 1460 1459 1458 1456 1455 1454 1453 1452 1450 1449 1448 1447 1446 1445 1444 1442 1441 1439 1437 1436 1435 1434 1433 1431 1430 1429 1427 1426 1425 1423 1423 1422
1508 1506 1505 1504 1503 1502 1500 1499 1498 1496 1495 1493 1492 1491 1489 1488 1487 1485 1484 1483 1481 1480 1478 1477 1476 1475 1473 1472 1470 1469 1468 1467 1465 1464 1462 1461 1459 1458 1457 1455 1454 1453 1452 1451 1450 1448 1447 1446 1445 1444 1443 1442 1441 1439 1437 1436 1434 1433 1432 1430 1429 1428 1427 1425 1424 1423 1421 1420 1419
1506 1504 1503 1502 1501 1500 1498 1497 1496 1494 1493 1491 1490 1489 1487 1486 1485 1483 1482 1481 1479 1478 1477 1475 1474 1473 1471 1470 1468 1467 1466 1464 1463 1462 1460 1459 1457 1456 1455 1453 1452 1451 1450 1449 1448 1446 1445 1444 1443 1442 1441 1440 1439 1437 1435 1434 1432 1431 1429 1428 1427 1426 1424 1423 1422 1420 1419 1418 1417
1504 1503 1501 1500 1499 1498 1496 1495 1494 1492 1491 1489 1488 1487 1486 1484 1483 1482 1480 1479 1478 1476 1475 1473 1472 1471 1469 1468 1467 1465 1464 1463 1461 1460 1458 1457 1455 1454 1453 1451 1450 1449 1448 1447 1445 1444 1443 1442 1441 1440 1439 1438 1437 1435 1433 1432 1430 1429 1427 1426 1424 1423 1422 1421 1420 1418 1417 1416 1414
1502 1501 1499 1498 1497 1496 1494 1493 1492 1490 1489 1488 1487 1485 1484 1483 1482 1480 1479 1478 1476 1474 1473 1472 1470 1469 1468 1466 1465 1463 1462 1460 1459 1458 1456 1455 1453 1452 1450 1449 1448 1447 1446 1445 1443 1442 1441 1440 1438 1438 1437 1436 1434 1433 1431 1430 1428 1427 1425 1423 1422 1421 1420 1419 1418 1416 1415 1414 1413
1500 1499 1498 1496 1495 1493 1493 1491 1490 1489 1488 1486 1485 1484 1483 1481 1480 1478 1477 1476 1474 1473 1471 1469 1468 1467 1465 1464 1463 1461 1460 1458 1457 1456 1454 1453 1451 1450 1448 1447 1446 1444 1443 1443 1441 1440 1438 1438 1436 1435 1434 1433 1432 1431 1429 1428 1426 1424 1423 1421 1420 1419 1418 1417 1416 1414 1413 1412 1411
1498 1497 1496 1494 1493 1492 1491 1489 1488 1487 1486 1485 1483 1482 1481 1479 1478 1477 1475 1474 1472 1471 1469 1468 1466 1465 1463 1462 1460 1459 1458 1456 1455 1453 1452 1451 1449 1448 1446 1445 1443 1443 1441 1440 1439 1438 1437 1435 1434 1433 1432 1431 1430 1428 1427 1425 1423 1422 1420 1419 1418 1417 1416 1415 1413 1413 1412 1411 1410
1496 1495 1494 1493 1491 1490 1489 1488 1487 1485 1484 1483 1482 1481 1479 1478 1476 1474 1473 1472 1470 1469 1468 1466 1465 1463 1462 1460 1459 1457 1456 1454 1453 1452 1450 1449 1448 1446 1444 1443 1441 1440 1439 1438 1437 1436 1434 1433 1432 1431 1430 1428 1427 1426 1424 1423 1421 1420 1418 1417 1416 1415 1414 1413 1412 1411 1410 1409 1408
1494 1493 1492 1491 1490 1488 1487 1486 1485 1484 1483 1481 1480 1479 1477 1476 1474 1473 1471 1470 1468 1467 1465 1464 1463 1461 1460 1458 1457 1456 1454 1452 1451 1449 1448 1447 1445 1444 1442 1440 1439 1438 1438 1436 1435 1433 1432 1431 1430 1428 1428 1426 1424 1423 1421 1420 1418 1417 1416 1415 1413 1413 1412 1411 1410 1409 1408 1407 1406
1493 1492 1490 1489 1488 1487 1486 1484 1483 1482 1481 1479 1478 1477 1475 1474 1472 1471 1469 1468 1466 1465 1463 1462 1461 1459 1458 1456 1455 1453 1452 1451 1449 1447 1446 1445 1443 1442 1440 1438 1437 1436 1435 1434 1433 1431 1430 1429 1428 1426 1425 1424 1422 1421 1419 1418 1416 1415 1414 1413 1412 1411 1410 1409 1408 1407 1406 1405 1404
1491 1490 1489 1487 1486 1485 1484 1483 1482 1480 1479 1478 1476 1475 1473 1472 1470 1469 1468 1466 1464 1463 1461 1460 1458 1457 1456 1454 1453 1451 1450 1449 1447 1445 1444 1443 1441 1440 1438 1436 1434 1433 1433 1432 1431 1429 1428 1427 1425 1424 1423 1422 1420 1418 1417 1415 1414 1413 1412 1411 1409 1409 1408 1407 1406 1405 1404 1403 1402
1490 1488 1487 1486 1485 1483 1482 1481 1480 1478 1477 1475 1474 1473 1471 1470 1468 1467 1466 1464 1463 1461 1459 1458 1457 1455 1454 1452 1451 1449 1448 1447 1445 1444 1442 1441 1439 1438 1436 1434 1432 1431 1430 1429 1428 1427 1426 1424 1423 1422 1421 1420 1418 1416 1415 1413 1412 1411 1409 1408 1407 1406 1406 1405 1404 1403 1402 1401 1400
1488 1487 1486 1484 1483 1482 1480 1479 1478 1476 1475 1473 1472 1471 1469 1468 1467 1465 1464 1463 1461 1460 1458 1456 1455 1453 1452 1450 1449 1447 1445 1444 1443 1442 1440 1439 1437 1436 1434 1432 1430 1429 1428 1427 1426 1425 1423 1422 1421 1420 1419 1418 1416 1414 1413 1411 1410 1408 1408 1406 1405 1404 1403 1403 1402 1401 1399 1398 1398
1487 1485 1484 1483 1481 1480 1478 1477 1476 1474 1473 1472 1470 1469 1468 1466 1465 1463 1462 1461 1460 1458 1456 1454 1453 1451 1450 1448 1447 1445 1443 1442 1441 1440 1438 1437 1435 1434 1432 1430 1428 1427 1426 1425 1423 1423 1421 1420 1419 1418 1417 1416 1414 1413 1411 1409 1408 1407 1405 1404 1403 1402 1401 1400 1400 1399 1398 1397 1396
1485 1483 1482 1481 1479 1478 1477 1475 1474 1473 1471 1470 1469 1468 1466 1465 1463 1462 1460 1459 1458 1456 1455 1453 1451 1449 1448 1446 1445 1443 1441 1439 1438 1437 1436 1435 1433 1432 1430 1428 1426 1424 1423 1422 1421 1420 1419 1418 1417 1416 1415 1413 1412 1410 1409 1408 1406 1404 1403 1402 1401 1400 1399 1398 1398 1397 1396 1395 1394